Location: Peterborough
(44.3091°N, 78.3197°W)
Time: 04:52:14
(UTC-04:00)

Tiros 1 - Pass Details

Date: 08 April 2023
Orbit: 627 x 661 km, 48.4° (Epoch: 09 June)

Event Time Altitude Azimuth Distance (km) Brightness Sun altitude
Rises 03:27:33 0° 270° (W) 2,966 - -30.5°
Reaches altitude 10° 03:29:56 10° 275° (W) 2,061 - -30.3°
Maximum altitude 03:34:36 54° 353° (N) 801 - -29.7°
Exits shadow 03:35:29 46° 32° (NNE) 880 8.1 -29.6°
Drops below altitude 10° 03:39:18 10° 71° (ENE) 2,076 10.5 -29.2°
Sets 03:41:43 0° 76° (ENE) 2,990 11.4 -28.9°
